Weather History for New Bedford, MA

Change the Weather History Date:

Sunday, December 16, 2012

  Actual Average Record
Temperature  
Mean Temperature 34 °F -  
Max Temperature 39 °F 42 °F 62 °F (1971)
Min Temperature 28 °F 29 °F 11 °F (1991)
Degree Days  
Heating Degree Days 32    
Moisture  
Dew Point 32 °F    
Average Humidity 87    
Maximum Humidity 100    
Minimum Humidity 64    
Precipitation  
Precipitation 0.23 in - - ()
Sea Level Pressure  
Sea Level Pressure 30.15 in    
Wind  
Wind Speed 6 mph (ENE)    
Max Wind Speed 14 mph    
Max Gust Speed 22 mph    
Visibility 5 miles    
Events Rain    
Averages and records for this station are not official NWS values.
T = Trace of Precipitation, MM = Missing Value Source: NWS Daily Summary

Daily Weather History Graph

Daily Weather History Graph

Search for Another Location

Airport:

Trip Planner

Search our weather history database for the weather conditions in past years. The results will help you decide how hot, cold, wet, or windy it might be!

Date:

Astronomy

Dec. 16, 2012 Rise Set
Actual Time 7:04 AM EST 4:14 PM EST
Civil Twilight 6:33 AM EST 4:46 PM EST
Nautical Twilight 5:58 AM EST 5:21 PM EST
Astronomical Twilight 5:24 AM EST 5:55 PM EST
Moon 9:33 AM EST (12/16) 8:28 PM EST (12/16)
Length of Visible Light 10h 12m
Length of Day
9h 09m
Waxing Crescent, 16% of the Moon is Illuminated
Dec 16
Waxing Crescent
Dec 20
First Quarter
Dec 28
Full
Jan 4
Last Quarter
Jan 11
New

Hourly Weather History & Observations

Time (EST) Temp. Windchill Dew Point Humidity Pressure Visibility Wind Dir Wind Speed Gust Speed Precip Events Conditions
12:53 AM 28.9 °F - 26.1 °F 89% 30.32 in 10.0 mi Calm Calm - N/A   Clear
1:53 AM 30.0 °F 26.5 °F 25.0 °F 82% 30.30 in 10.0 mi East 3.5 mph - N/A   Mostly Cloudy
2:53 AM 30.9 °F 27.5 °F 26.1 °F 82% 30.30 in 10.0 mi NNE 3.5 mph - N/A   Overcast
3:53 AM 30.9 °F - 26.1 °F 82% 30.29 in 10.0 mi Calm Calm - N/A   Mostly Cloudy
4:53 AM 30.9 °F 25.2 °F 26.1 °F 82% 30.27 in 10.0 mi ENE 5.8 mph - N/A   Overcast
5:53 AM 32.0 °F 27.5 °F 26.1 °F 79% 30.28 in 10.0 mi ENE 4.6 mph - N/A   Overcast
6:53 AM 33.1 °F 27.7 °F 26.1 °F 75% 30.28 in 10.0 mi ENE 5.8 mph - N/A   Overcast
7:53 AM 35.1 °F 29.3 °F 25.0 °F 67% 30.27 in 10.0 mi East 6.9 mph - N/A   Overcast
8:53 AM 36.0 °F 28.5 °F 25.0 °F 64% 30.27 in 10.0 mi East 10.4 mph - N/A   Overcast
9:53 AM 37.0 °F 29.8 °F 26.1 °F 65% 30.27 in 10.0 mi East 10.4 mph - N/A   Overcast
10:53 AM 37.0 °F 30.4 °F 26.1 °F 65% 30.25 in 10.0 mi East 9.2 mph - N/A   Overcast
11:53 AM 37.9 °F 29.6 °F 27.0 °F 65% 30.22 in 10.0 mi East 13.8 mph 21.9 mph N/A   Overcast
12:32 PM 37.4 °F 30.8 °F 28.4 °F 70% 30.20 in 10.0 mi East 9.2 mph - N/A   Overcast
12:53 PM 37.0 °F 29.8 °F 28.9 °F 73% 30.19 in 8.0 mi East 10.4 mph - 0.00 in Rain Light Rain
1:53 PM 36.0 °F 29.0 °F 30.9 °F 82% 30.17 in 5.0 mi East 9.2 mph - 0.00 in Rain Light Rain
2:53 PM 36.0 °F 28.5 °F 32.0 °F 86% 30.16 in 2.5 mi East 10.4 mph - 0.00 in Rain Light Rain
3:00 PM 35.6 °F 29.2 °F 33.8 °F 93% 30.16 in 3.0 mi East 8.1 mph - 0.01 in Rain Rain
3:32 PM 35.6 °F 29.9 °F 33.8 °F 93% 30.14 in 2.0 mi East 6.9 mph - 0.01 in Rain Light Rain
3:35 PM 35.6 °F 30.7 °F 33.8 °F 93% 30.14 in 1.8 mi East 5.8 mph - 0.01 in Rain Light Rain
3:38 PM 35.6 °F 29.9 °F 33.8 °F 93% 30.14 in 2.0 mi ENE 6.9 mph - 0.02 in   Overcast
3:41 PM 35.6 °F 29.2 °F 33.8 °F 93% 30.14 in 2.0 mi East 8.1 mph - 0.02 in Rain Light Rain
3:48 PM 35.6 °F 29.9 °F 33.8 °F 93% 30.14 in 2.0 mi ENE 6.9 mph - 0.02 in Rain Light Rain
3:53 PM 36.0 °F 30.3 °F 34.0 °F 93% 30.15 in 2.0 mi ENE 6.9 mph - 0.02 in   Overcast
4:53 PM 35.6 °F 28.6 °F 33.8 °F 93% 30.13 in 2.0 mi East 9.2 mph - N/A Rain Light Rain
5:24 PM 37.4 °F 31.4 °F 35.6 °F 93% 30.12 in 3.0 mi East 8.1 mph - 0.01 in Rain Light Rain
5:53 PM 37.0 °F 31.0 °F 35.1 °F 93% 30.12 in 4.0 mi East 8.1 mph - 0.02 in Rain Light Rain
6:53 PM 37.0 °F 31.0 °F 35.1 °F 93% 30.11 in 3.0 mi ENE 8.1 mph - 0.02 in Rain Light Rain
7:03 PM 37.4 °F 30.8 °F 35.6 °F 93% 30.10 in 2.5 mi ENE 9.2 mph - 0.00 in Rain Light Rain
7:53 PM 37.0 °F 31.0 °F 35.1 °F 93% 30.09 in 2.0 mi East 8.1 mph - 0.02 in   Overcast
8:31 PM 37.4 °F 31.4 °F 35.6 °F 93% 30.07 in 3.0 mi East 8.1 mph - 0.01 in   Overcast
8:48 PM 37.4 °F 32.1 °F 35.6 °F 93% 30.07 in 2.5 mi ENE 6.9 mph - 0.01 in   Overcast
8:53 PM 37.0 °F 31.0 °F 36.0 °F 96% 30.07 in 2.5 mi East 8.1 mph - 0.01 in   Overcast
9:13 PM 37.4 °F 31.4 °F 35.6 °F 93% 30.06 in 3.0 mi ENE 8.1 mph - 0.00 in Rain Light Rain
9:24 PM 37.4 °F 30.8 °F 35.6 °F 93% 30.06 in 2.5 mi ENE 9.2 mph - 0.03 in Rain Heavy Rain
9:35 PM 37.4 °F 30.8 °F 35.6 °F 93% 30.05 in 4.0 mi ENE 9.2 mph - 0.04 in Rain Light Rain
9:53 PM 37.9 °F 32.1 °F 36.0 °F 93% 30.06 in 3.0 mi ENE 8.1 mph - 0.04 in Rain Light Rain
10:53 PM 39.0 °F 33.4 °F 37.0 °F 93% 30.04 in 4.0 mi ENE 8.1 mph - 0.03 in Rain Light Rain
11:20 PM 37.4 °F 30.8 °F 37.4 °F 100% 30.03 in 2.5 mi NE 9.2 mph - 0.02 in Rain Rain
11:30 PM 37.4 °F 31.4 °F 37.4 °F 100% 30.02 in 3.0 mi NE 8.1 mph - 0.04 in Rain Rain
11:37 PM 37.4 °F 32.1 °F 37.4 °F 100% 30.03 in 2.5 mi NE 6.9 mph - 0.06 in Rain Rain
11:53 PM 39.0 °F 32.8 °F 37.0 °F 93% 30.02 in 3.0 mi ENE 9.2 mph - 0.07 in Rain Light Rain